Preview of NWS' New Version of Forecast
This preview is not operational and should not be used for support decisions.

Regional Weather Roundup (RWR)

Issued by National Weather Service (NWS)

                            
000
ASUS44 KMEG 220000
RWRTN 
TENNESSEE HOURLY STATE WEATHER ROUNDUP
NATIONAL WEATHER SERVICE MEMPHIS TN
700 PM CDT SUN JUL 21 2019

TNZ002-004-019-021-049-052-054-088>092-220100-
WEST TENNESSEE
  
CITY           SKY/WX    TMP DP  RH WIND       PRES   REMARKS
MEMPHIS INTL   PTSUNNY   85  77  77 S10       29.95R HX  95           
NWS MEMPHIS      N/A     86 N/A N/A MISG        N/A                   
JACKSON        FAIR      86  78  77 S9        29.94S HX  98           
DYERSBURG      FAIR      86  77  74 CALM      29.94S HX  97           
$$

TNZ008-025-027-028-033-062-065-066-220100-
NORTH MIDDLE TENNESSEE
  
CITY           SKY/WX    TMP DP  RH WIND       PRES   REMARKS
NASHVILLE      PTSUNNY   86  72  62 SW6       29.95F HX  92           
CLARKSVILLE    FAIR      87  76  69 S8        29.91F HX  97           
SMYRNA         FAIR      85  76  74 SW5       29.95F HX  94           
CROSSVILLE     FAIR      76  71  85 CALM      30.04S                  
$$

TNZ061-075-076-078-094-096-097-220100-
SOUTH MIDDLE TENNESSEE
  
CITY           SKY/WX    TMP DP  RH WIND       PRES   REMARKS
$$

TNZ017-018-042-046-047-220100-
NORTHEAST TENNESSEE
  
CITY           SKY/WX    TMP DP  RH WIND       PRES   REMARKS
TRI CITIES     FAIR      85  70  60 W7        30.01R                  
$$

TNZ012-013-036-069-073-074-220100-
CENTRAL EAST TENNESSEE
  
CITY           SKY/WX    TMP DP  RH WIND       PRES   REMARKS
KNOXVILLE      FAIR      83  70  64 SW8       29.97R                  
OAK RIDGE      FAIR      83  72  69 CALM      29.99S                  
$$

TNZ083-085-099-220100-
SOUTHEAST TENNESSEE
  
CITY           SKY/WX    TMP DP  RH WIND       PRES   REMARKS
CHATTANOOGA    MOCLDY    87  72  60 SW12      29.98S HX  93           
$$

SKY/WX REPORTED AS FAIR MEANS FEW OR NO CLOUDS BELOW
12 THOUSAND FEET.